Location: Normandy Village
(37.8755°N, 122.2655°W)
Time: 06:54:19
(UTC+00:00)

ATLAS 3B R/B - Pass Details

Date: 10 December 2019
Orbit: 1027 x 1168 km, 63.8° (Epoch: 19 January)

Event Time Altitude Azimuth Distance (km) Brightness Sun altitude
Rises 01:47:30 0° 319° (NW) 3,812 5.9 -11.2°
Reaches altitude 10° 01:50:17 10° 311° (NW) 2,870 5.3 -11.7°
Maximum altitude 01:56:23 37° 247° (WSW) 1,608 4.4 -12.8°
Drops below altitude 10° 02:02:39 10° 183° (S) 2,942 5.3 -14.0°
Sets 02:05:33 0° 175° (S) 3,918 5.8 -14.6°
